View from above orbital plane
|
View from above satellite
|
Ground track
|
The orbit data is extracted from the following two-line orbital elements,
1 26474U 00047B 21103.03992231 .00000121 00000-0 21351-4 0 9990
2 26474 67.9943 330.9667 0059894 231.2132 128.3652 14.96120897124131
Epoch (UTC): | 13 April 2021 00:57:29 |
Eccentricity: | 0.0059894 |
inclination: | 67.9943° |
perigee height: | 537 km |
apogee height: | 620 km |
right ascension of ascending node: | 330.9667° |
argument of perigee: | 231.2132° |
revolutions per day: | 14.96120897 |
mean anomaly at epoch: | 128.3652° |
orbit number at epoch: | 12413 |
The dashed part of the orbit path shows where the satellite is in the earth's shadow,
|
|